Time,TemperatureF,DewpointF,PressureIn,WindDirection,WindDirectionDegrees,WindSpeedMPH,WindSpeedGustMPH,Humidity,HourlyPrecipIn,Conditions,Clouds,dailyrainin,SoftwareType,DateUTC
2013-09-15 01:42:00,47.0,-99.9,29.88,SW,225,0.0,3.0,0,-99.99,,,0.01,,2013-09-15 05:42:00,
2013-09-15 01:52:00,47.0,-99.9,29.88,SW,225,0.0,3.0,0,-99.99,,,0.01,,2013-09-15 05:52:00,
2013-09-15 02:02:00,47.0,-99.9,29.88,SW,225,0.0,3.0,0,-99.99,,,0.01,,2013-09-15 06:02:00,
2013-09-15 02:42:00,47.0,-99.9,29.89,SW,225,0.0,0.0,0,-99.99,,,0.01,,2013-09-15 06:42:00,
2013-09-15 02:52:00,47.0,-99.9,29.89,SW,225,0.0,0.0,0,-99.99,,,0.01,,2013-09-15 06:52:00,
2013-09-15 03:02:00,47.0,-99.9,29.89,SW,225,0.0,0.0,0,-99.99,,,0.01,,2013-09-15 07:02:00,
2013-09-15 03:53:00,46.0,-99.9,29.88,South,180,0.0,4.0,0,-99.99,,,0.01,,2013-09-15 07:53:00,
2013-09-15 04:02:00,46.0,-99.9,29.88,South,180,0.0,4.0,0,-99.99,,,0.01,,2013-09-15 08:02:00,
2013-09-15 04:43:00,48.0,-99.9,29.89,West,270,4.0,8.0,0,-99.99,,,0.01,,2013-09-15 08:43:00,
2013-09-15 04:52:00,48.0,-99.9,29.89,West,270,4.0,8.0,0,-99.99,,,0.01,,2013-09-15 08:52:00,
2013-09-15 05:02:00,48.0,-99.9,29.89,West,270,4.0,8.0,0,-99.99,,,0.01,,2013-09-15 09:02:00,
2013-09-15 05:03:00,46.0,-99.9,29.90,WSW,247,2.0,7.0,0,-99.99,,,0.01,,2013-09-15 09:03:00,
2013-09-15 05:44:00,46.0,-99.9,29.90,WSW,247,2.0,7.0,0,-99.99,,,0.01,,2013-09-15 09:44:00,
2013-09-15 05:54:00,46.0,-99.9,29.90,WSW,247,2.0,7.0,0,-99.99,,,0.01,,2013-09-15 09:54:00,
2013-09-15 06:43:00,45.0,-99.9,29.89,WSW,247,6.0,9.0,0,-99.99,,,0.01,,2013-09-15 10:43:00,
2013-09-15 06:53:00,45.0,-99.9,29.89,WSW,247,6.0,9.0,0,-99.99,,,0.01,,2013-09-15 10:53:00,
2013-09-15 07:02:00,45.0,-99.9,29.89,WSW,247,6.0,9.0,0,-99.99,,,0.01,,2013-09-15 11:02:00,
2013-09-15 08:42:00,50.0,-99.9,29.91,West,270,6.0,11.0,0,-99.99,,,0.01,,2013-09-15 12:42:00,
2013-09-15 08:52:00,50.0,-99.9,29.91,West,270,6.0,11.0,0,-99.99,,,0.01,,2013-09-15 12:52:00,
2013-09-15 09:02:00,50.0,-99.9,29.91,West,270,6.0,11.0,0,-99.99,,,0.01,,2013-09-15 13:02:00,
2013-09-15 09:42:00,53.0,-99.9,29.91,SW,225,9.0,12.0,0,-99.99,,,0.01,,2013-09-15 13:42:00,
2013-09-15 09:53:00,53.0,-99.9,29.91,SW,225,9.0,12.0,0,-99.99,,,0.01,,2013-09-15 13:53:00,
2013-09-15 10:02:00,53.0,-99.9,29.91,SW,225,9.0,12.0,0,-99.99,,,0.01,,2013-09-15 14:02:00,
2013-09-15 15:42:00,62.0,-99.9,29.84,SW,225,6.0,21.0,0,-99.99,,,0.00,,2013-09-15 19:42:00,
2013-09-15 15:52:00,62.0,-99.9,29.84,SW,225,6.0,21.0,0,-99.99,,,0.00,,2013-09-15 19:52:00,
2013-09-15 16:02:00,62.0,-99.9,29.84,SW,225,6.0,21.0,0,-99.99,,,0.00,,2013-09-15 20:02:00,
2013-09-15 16:42:00,60.0,-99.9,29.85,NNE,22,6.0,18.0,0,-99.99,,,0.00,,2013-09-15 20:42:00,
2013-09-15 16:53:00,60.0,-99.9,29.85,NNE,22,6.0,18.0,0,-99.99,,,0.00,,2013-09-15 20:53:00,
2013-09-15 17:02:00,60.0,-99.9,29.85,NNE,22,6.0,18.0,0,-99.99,,,0.00,,2013-09-15 21:02:00,
2013-09-15 17:03:00,59.0,-99.9,29.84,West,270,2.0,11.0,0,-99.99,,,0.00,,2013-09-15 21:03:00,
2013-09-15 17:44:00,59.0,-99.9,29.84,West,270,2.0,11.0,0,-99.99,,,0.00,,2013-09-15 21:44:00,
2013-09-15 17:54:00,59.0,-99.9,29.84,West,270,2.0,11.0,0,-99.99,,,0.00,,2013-09-15 21:54:00,
2013-09-15 18:03:00,59.0,-99.9,29.85,West,270,4.0,8.0,0,-99.99,,,0.00,,2013-09-15 22:03:00,
2013-09-15 18:44:00,59.0,-99.9,29.85,West,270,4.0,8.0,0,-99.99,,,0.00,,2013-09-15 22:44:00,
2013-09-15 18:54:00,59.0,-99.9,29.85,West,270,4.0,8.0,0,-99.99,,,0.00,,2013-09-15 22:54:00,
2013-09-15 19:42:00,58.0,-99.9,29.84,SSW,202,3.0,12.0,0,-99.99,,,0.00,,2013-09-15 23:42:00,
2013-09-15 19:53:00,58.0,-99.9,29.84,SSW,202,3.0,12.0,0,-99.99,,,0.00,,2013-09-15 23:53:00,
2013-09-15 20:02:00,58.0,-99.9,29.84,SSW,202,3.0,12.0,0,-99.99,,,0.00,,2013-09-16 00:02:00,
2013-09-15 20:42:00,55.0,-99.9,29.84,SW,225,3.0,7.0,0,-99.99,,,0.00,,2013-09-16 00:42:00,
2013-09-15 20:52:00,55.0,-99.9,29.84,SW,225,3.0,7.0,0,-99.99,,,0.00,,2013-09-16 00:52:00,
2013-09-15 21:02:00,55.0,-99.9,29.84,SW,225,3.0,7.0,0,-99.99,,,0.00,,2013-09-16 01:02:00,
2013-09-15 21:42:00,55.0,-99.9,29.84,WSW,247,6.0,6.0,0,-99.99,,,0.00,,2013-09-16 01:42:00,
2013-09-15 21:52:00,55.0,-99.9,29.84,WSW,247,6.0,6.0,0,-99.99,,,0.00,,2013-09-16 01:52:00,
2013-09-15 22:02:00,55.0,-99.9,29.84,WSW,247,6.0,6.0,0,-99.99,,,0.00,,2013-09-16 02:02:00,
2013-09-15 22:42:00,57.0,-99.9,29.82,West,270,6.0,12.0,0,-99.99,,,0.00,,2013-09-16 02:42:00,
2013-09-15 22:52:00,57.0,-99.9,29.82,West,270,6.0,12.0,0,-99.99,,,0.00,,2013-09-16 02:52:00,
2013-09-15 23:02:00,57.0,-99.9,29.82,West,270,6.0,12.0,0,-99.99,,,0.00,,2013-09-16 03:02:00,
2013-09-15 23:03:00,56.0,-99.9,29.81,WNW,292,4.0,12.0,0,-99.99,,,0.00,,2013-09-16 03:03:00,
2013-09-15 23:45:00,56.0,-99.9,29.81,WNW,292,4.0,12.0,0,-99.99,,,0.00,,2013-09-16 03:45:00,
2013-09-15 23:55:00,56.0,-99.9,29.81,WNW,292,4.0,12.0,0,-99.99,,,0.00,,2013-09-16 03:55:00,